Regional Weather Roundup
Issued by NWS

Home | Current Version | Previous Version | Graphics & Text | Print | Product List | Glossary On
Versions: 1 2 3 4 5 6 7 8 9 10 11 12 13 14 15 16 17 18 19 20 21 22 23 24 25 26 27 28 29 30 31 32 33 34 35 36 37 38 39 40 41 42 43 44 45 46 47 48 49 50
000
ASUS45 KABQ 190410
RWRNM
WEATHER ROUNDUP FOR NEW MEXICO
NATIONAL WEATHER SERVICE ALBUQUERQUE NM
1000 PM MDT THU SEP 18 2014

NOTE: "FAIR" MEANS FEW OR NO CLOUDS BELOW 12,000 FEET AGL WITH NO
       SIGNIFICANT WEATHER OR OBSTRUCTIONS TO VISION.

      THIS PRODUCT IS RELEASED AS TWO VERSIONS.  ONE VERSION NEAR
      THE TOP OF THE HOUR CONTAINING PRELIMINARY DATA FROM ALBUQUERQUE
      AND OTHER STATIONS.  A FINAL VERSION WITH ADDITIONAL DATA IS
      ISSUED ABOUT 10 MINUTES AFTER THE HOUR.

NMZ501-503-504-510>518-190500-
NORTHWEST PLATEAU/NORTHCENTRAL MOUNTAINS

CITY           SKY/WX    TMP DP  RH WIND       PRES   REMARKS
FARMINGTON     CLEAR     67  37  33 NE7       29.98R
LOS ALAMOS     CLEAR     64  50  61 S10       30.19R
SANTA FE       CLEAR     65  53  65 S12       30.12R
TAOS           CLEAR     63  45  51 SE10      30.17R
ANGEL FIRE     FAIR      47  42  81 CALM      30.29S

$$
NMZ402-403-502-505>509-190500-
WESTCENTRAL MOUNTAINS/SOUTHWEST MOUNTAINS

CITY           SKY/WX    TMP DP  RH WIND       PRES   REMARKS
GALLUP         CLEAR     59  47  64 NE3       30.10R
GRANTS         CLEAR     54  43  66 S5        30.13R
SILVER CITY    MOCLDY    63  59  88 CALM      30.08R

$$
NMZ407-409-411-412-190500-
SOUTHERN DESERTS

CITY           SKY/WX    TMP DP  RH WIND       PRES   REMARKS
LORDSBURG      MOCLDY    64  63  94 MISG      29.99S
DEMING         CLOUDY    65  65 100 E6        30.00R
LAS CRUCES     CLOUDY    65  64  94 CALM      30.02R
HOLLOMAN AFB   CLOUDY    67  65  96 CALM      30.00R
ALAMOGORDO     CLOUDY    66  66 100 CALM      30.01S
T OR C         PTCLDY    66  63  90 S3        30.02R

$$
NMZ519>523-190500-
CENTRAL VALLEYS/CENTRAL HIGHLANDS

CITY           SKY/WX    TMP DP  RH WIND       PRES   REMARKS
ALBUQUERQUE    MOCLDY    67  57  70 S5        30.07R
DOUBLE EAGLE   PTCLDY    63  57  82 SE8       30.10R
MORIARTY ARPT  CLOUDY    62  57  83 SE7       30.15R
CLINES CORNERS CLOUDY    60  53  77 SE13      30.18R
BELEN          MOCLDY    66  60  83 S8        30.06R
SOCORRO        CLOUDY    65  62  87 SE5       30.04R

$$
NMZ524>526-539-540-190500-
SOUTHCENTRAL MOUNTAINS

CITY           SKY/WX    TMP DP  RH WIND       PRES   REMARKS
RUIDOSO        CLOUDY    57  55  94 SE3       30.18S

$$
NMZ527>531-190500-
NORTHEAST HIGHLANDS/NORTHEAST PLAINS

CITY           SKY/WX    TMP DP  RH WIND       PRES   REMARKS
LAS VEGAS      PTCLDY    56  53  90 CALM      30.19R
RATON          CLEAR     60  54  80 SW7       30.16R
CLAYTON        PTCLDY    62  59  90 S7        30.09S

$$
NMZ532>537-190500-
EASTCENTRAL PLAINS

CITY           SKY/WX    TMP DP  RH WIND       PRES   REMARKS
TUCUMCARI      MOCLDY    67  61  81 E3        30.05R
CANNON AFB     CLOUDY    64  64 100 SE9       30.07R
CLOVIS AIRPORT   N/A     64  61  88 S8        30.09S

$$
NMZ028-029-538-190500-
SOUTHEAST PLAINS

CITY           SKY/WX    TMP DP  RH WIND       PRES   REMARKS
ROSWELL        LGT RAIN  69  66  90 S3        30.00R
CARLSBAD       LGT RAIN  70  32  24 SE7       29.97S
HOBBS          CLOUDY    66  66 100 E10       30.03R


$$


USA.gov is the U.S. government's official web portal to all federal, state and local government web resources and services.